Regional Weather Roundup
Issued by NWS

Home | Current Version | Previous Version | Graphics & Text | Print | Product List | Glossary On
Versions: 1 2 3 4 5 6 7 8 9 10 11 12 13 14 15 16 17 18 19 20 21 22 23 24 25 26 27 28 29 30 31 32 33 34 35 36 37 38 39 40 41 42 43 44 45 46 47 48 49 50
000
ASUS44 KMEG 041810
RWRTN
TENNESSEE HOURLY STATE WEATHER ROUNDUP
NATIONAL WEATHER SERVICE MEMPHIS TN
100 PM CDT MON MAY 04 2015

TNZ002-004-019-021-049-052-054-088>092-041900-
WEST TENNESSEE

CITY           SKY/WX    TMP DP  RH WIND       PRES   REMARKS
MEMPHIS INTL   MOSUNNY   81  56  42 S14G20    30.21F
NWS MEMPHIS      N/A     82 N/A N/A MISG        N/A
JACKSON        PTSUNNY   80  55  42 SW7       30.22F
DYERSBURG      MOSUNNY   84  52  32 SW8G17    30.21F
PARIS          MOSUNNY   79  55  44 SW13      30.22F
LEXINGTON      SUNNY     81  55  41 SW8       30.23F
$$

TNZ008-025-027-028-033-062-065-066-041900-
NORTH MIDDLE TENNESSEE

CITY           SKY/WX    TMP DP  RH WIND       PRES   REMARKS
NASHVILLE      PTSUNNY   80  52  37 VRB6      30.24F
CLARKSVILLE    MOSUNNY   80  56  43 W10       30.22F
SMYRNA         MOSUNNY   81  54  39 W7        30.25F
COOKEVILLE     MOSUNNY   81  54  39 SW9       30.27F
CROSSVILLE     MOSUNNY   75  45  34 VRB3      30.31F
$$

TNZ061-075-076-078-094-096-097-041900-
SOUTH MIDDLE TENNESSEE

CITY           SKY/WX    TMP DP  RH WIND       PRES   REMARKS
FAYETTEVILLE     N/A     79  52  38 VRB3      30.28F
TULLAHOMA      MOSUNNY   77  50  38 CALM      30.30F
WINCHESTER     PTSUNNY   77  52  41 VRB3      30.29F
MCMINNVILLE    SUNNY     81  54  39 W8        30.28F
COLUMBIA       MOSUNNY   82  55  39 S8        30.24F
SHELBYVILLE    PTSUNNY   81  57  44 SW7       30.28F
$$

TNZ017-018-042-046-047-041900-
NORTHEAST TENNESSEE

CITY           SKY/WX    TMP DP  RH WIND       PRES   REMARKS
TRI CITIES     MOSUNNY   76  48  37 W12       30.30F
ELIZABETHTON   CLEAR     77  48  36 W7        30.30F
$$

TNZ012-013-036-069-073-074-041900-
CENTRAL EAST TENNESSEE

CITY           SKY/WX    TMP DP  RH WIND       PRES   REMARKS
KNOXVILLE      MOSUNNY   79  49  34 VRB7      30.28F
OAK RIDGE      SUNNY     81  48  31 VRB6      30.29F
GATLINBURG     PTCLDY    79  48  34 VRB3      30.28F
MORRISTOWN     CLEAR     79  52  38 NW13      30.30F
$$

TNZ083-085-099-041900-
SOUTHEAST TENNESSEE

CITY           SKY/WX    TMP DP  RH WIND       PRES   REMARKS
CHATTANOOGA    PTSUNNY   80  49  33 S9        30.28F
$$

SKY/WX REPORTED AS FAIR MEANS FEW OR NO CLOUDS BELOW
12 THOUSAND FEET.



USA.gov is the U.S. government's official web portal to all federal, state and local government web resources and services.